Flag for U.S.A. Weather past 2 weeks in Santa Clara, California, U.S.A.

Now
74 °F

Sunny.


Feels Like: 77 °F
Forecast: 58 / 80 °F
Wind: No wind

Location: San Jose International Airport

Current Time: Aug 27, 2014 at 12:15:28 PM

Latest Report: Aug 27, 2014 at 10:53 AM


Visibility: 10 mi

Pressure: 30.05 "Hg

Humidity: 56%

Dew point: 57 °F

Location of Santa ClaraLocation

Historic Weather in Santa Clara — Graph

°F

Santa Clara temperature yesterday

Maximum temperature yesterday: 77 °F (at 3:53 PM)
Minimum temperature yesterday: 57 °F (at 5:53 AM)
Average temperature yesterday: 66 °F

Past Weeks' High & Low Weather Summary

 TemperatureHumidityPressure
High81 °F (Aug 13, 2:53 PM)90% (Aug 17, 3:53 AM)30.06 "Hg (Aug 17, 3:53 AM)
Low57 °F (Aug 26, 5:53 AM)35% (Aug 20, 3:53 PM)29.79 "Hg (Aug 19, 4:53 PM)
Average67 °F69%29.92 "Hg
* Reported Aug 12 10:53 AM — Aug 27 10:53 AM, Santa Clara, Weather by CustomWeather, © 2014

Note: Actual official high and low records may vary slightly from our data, if they occured in-between our weather recording intervals... More about our weather records

Advertising

Santa Clara weather history for previous 24 hours

 ConditionsComfort  
Time TempWeatherWind HumidityBarometerVisibility
10:53 AM
Aug 27
74 °FSunny.No wind56%30.05 "Hg10 mi
9:53 AM69 °FSunny.No wind66%30.06 "Hg10 mi
8:53 AM66 °FSunny.No wind70%30.06 "Hg10 mi
7:53 AM62 °FSunny.No wind78%30.05 "Hg10 mi
6:53 AM60 °FPassing clouds.3 mph78%30.05 "Hg10 mi
5:53 AM60 °FPassing clouds.No wind80%30.03 "Hg10 mi
4:53 AM61 °FClear.No wind78%30.02 "Hg10 mi
3:53 AM61 °FClear.No wind78%30.01 "Hg10 mi
2:53 AM62 °FClear.3 mph80%30.01 "Hg10 mi
1:53 AM63 °FClear.No wind81%30.01 "Hg10 mi
12:53 AM64 °FClear.No wind78%30.01 "Hg10 mi
11:53 PM
Aug 26
64 °FClear.No wind78%30.01 "Hg10 mi
10:53 PM64 °FClear.5 mph78%30.00 "Hg10 mi
9:53 PM65 °FClear.8 mph76%29.99 "Hg10 mi
8:53 PM67 °FClear.8 mph68%29.98 "Hg10 mi
7:53 PM68 °FSunny.9 mph65%29.95 "Hg10 mi
6:53 PM72 °FSunny.12 mph57%29.93 "Hg10 mi
5:53 PM74 °FSunny.14 mph53%29.93 "Hg10 mi
4:53 PM76 °FSunny.14 mph50%29.93 "Hg10 mi
3:53 PM77 °FSunny.13 mph48%29.93 "Hg10 mi
2:53 PM76 °FSunny.12 mph50%29.95 "Hg10 mi
1:53 PM76 °FSunny.8 mph50%29.96 "Hg10 mi
12:53 PM75 °FSunny.5 mph48%29.98 "Hg10 mi
Weather by CustomWeather, © 2014

See weather overviewHow to use our weather pages